ZL2ARL Weather Reports


time (UTC)temp
F
wind
direction
speed
knots
gust
knots
rain 1hr
in
rain 24hr
in
rain mn
in
humidity
%
barometer
mb
20260504033016 55 351 11.3 17.4 0.00 0.00 0.00 77 1033.5
20260504032032 55 349 11.3 18.2 0.00 0.00 0.00 75 1033.4
20260504031026 56 343 10.4 17.4 0.00 0.00 0.00 72 1033.4
20260504030022 57 325 13.0 25.2 0.00 0.00 0.00 73 1033.4
20260504025017 57 333 13.9 23.5 0.00 0.00 0.00 73 1033.5
20260504024032 56 351 12.2 17.4 0.00 0.00 0.00 75 1033.4
20260504023027 56 351 13.0 25.2 0.00 0.00 0.00 74 1033.3
20260504022022 57 349 10.4 17.4 0.00 0.00 0.00 72 1033.5
20260504021016 57 339 13.0 20.9 0.00 0.00 0.00 74 1033.5
20260504020032 57 334 13.0 20.0 0.00 0.00 0.00 73 1033.7
20260504015027 57 346 12.2 24.3 0.00 0.00 0.00 72 1033.7
20260504014022 58 326 13.9 24.3 0.00 0.00 0.00 71 1033.6
20260504013017 58 334 12.2 20.0 0.00 0.00 0.00 72 1033.7
20260504012032 57 345 12.2 18.2 0.00 0.00 0.00 74 1033.7
20260504011027 56 349 11.3 21.7 0.00 0.00 0.00 75 1033.8
20260504010022 57 350 13.9 20.9 0.00 0.00 0.00 75 1033.9
20260504005017 57 342 11.3 16.5 0.00 0.00 0.00 73 1033.9
20260504004032 57 338 11.3 18.2 0.00 0.00 0.00 72 1034.1
20260504003027 56 339 12.2 21.7 0.00 0.00 0.00 74 1034.3
20260504002022 57 350 13.0 21.7 0.00 0.00 0.00 74 1034.2
20260504001018 57 349 12.2 18.2 0.00 0.00 0.00 75 1034.4
20260504000033 56 347 14.8 21.7 0.00 0.00 0.00 75 1034.5
20260503235027 56 340 13.9 22.6 0.00 0.00 0.00 74 1034.7
20260503234023 57 343 13.0 20.0 0.00 0.00 0.00 73 1034.6
20260503233038 57 354 14.8 24.3 0.00 0.00 0.00 74 1034.5
20260503232053 57 350 11.3 20.0 0.00 0.00 0.00 74 1034.7
20260503231028 56 355 13.0 19.1 0.00 0.00 0.00 74 1034.7
20260503230042 56 353 13.9 21.7 0.00 0.00 0.00 75 1034.6
20260503225017 56 348 14.8 24.3 0.00 0.00 0.00 75 1034.7
20260503224033 56 356 11.3 21.7 0.00 0.00 0.00 76 1034.7
20260503223028 55 354 13.0 21.7 0.00 0.00 0.00 77 1034.5
20260503222023 55 341 14.8 20.0 0.00 0.00 0.00 77 1034.7
20260503221018 55 354 12.2 20.0 0.00 0.00 0.00 78 1034.6
20260503220033 54 354 12.2 18.2 0.00 0.00 0.00 79 1034.6
20260503215028 54 354 12.2 20.0 0.00 0.00 0.00 80 1034.7
20260503214043 54 348 11.3 18.2 0.00 0.00 0.00 80 1034.7
20260503213018 54 2 9.6 15.6 0.00 0.00 0.00 80 1034.7
20260503212034 54 352 11.3 18.2 0.00 0.00 0.00 80 1034.7
20260503211029 53 343 8.7 14.8 0.00 0.00 0.00 80 1034.7
20260503210024 53 357 10.4 15.6 0.00 0.00 0.00 80 1034.8
20260503205039 53 359 9.6 14.8 0.00 0.00 0.00 80 1034.8
20260503204034 53 2 8.7 14.8 0.00 0.00 0.00 79 1034.9
20260503203029 52 347 9.6 16.5 0.00 0.00 0.00 80 1034.8
20260503202025 52 347 9.6 16.5 0.00 0.00 0.00 81 1034.6
20260503201020 52 358 7.8 13.9 0.00 0.00 0.00 82 1034.5
20260503200035 51 2 9.6 14.8 0.00 0.00 0.00 82 1034.5
20260503195030 51 354 8.7 14.8 0.00 0.00 0.00 82 1034.4
20260503194024 51 8 11.3 18.2 0.00 0.00 0.00 82 1034.4
20260503193020 51 4 11.3 16.5 0.00 0.00 0.00 82 1034.2
20260503192035 51 17 10.4 18.2 0.00 0.00 0.00 82 1034.1
20260503191050 51 9 9.6 15.6 0.00 0.00 0.00 82 1034.2
20260503190025 51 5 8.7 12.2 0.00 0.00 0.00 82 1034.1
20260503185020 51 7 9.6 16.5 0.00 0.00 0.00 82 1034.1
20260503184156 51 5 8.7 16.5 0.00 0.00 0.00 82 1033.9
20260503183031 51 2 9.6 16.5 0.00 0.00 0.00 82 1034.1
20260503182026 51 8 9.6 15.6 0.00 0.00 0.00 81 1034.0
20260503181021 51 6 7.8 16.5 0.00 0.00 0.00 81 1034.1
20260503180017 51 10 8.7 15.6 0.00 0.00 0.00 82 1034.0
20260503175032 51 17 10.4 15.6 0.00 0.00 0.00 82 1034.1
20260503174027 51 6 7.8 14.8 0.00 0.00 0.00 82 1034.1
20260503173042 51 8 9.6 17.4 0.00 0.00 0.00 82 1034.0
20260503172017 51 6 7.0 13.0 0.00 0.00 0.00 82 1034.0
20260503171032 51 15 9.6 15.6 0.00 0.00 0.00 82 1034.1
20260503131035 50 9 9.6 14.8 0.00 0.00 0.00 84 1034.7
20260503081049 50 4 7.8 12.2 0.00 0.00 0.00 83 1033.9
20260503072024 50 353 8.7 13.9 0.00 0.00 0.00 83 1033.8
20260503071019 50 348 7.8 13.9 0.00 0.00 0.00 83 1033.7
20260503055020 51 358 8.7 13.0 0.00 0.00 0.00 80 1033.5
20260503054055 51 349 9.6 15.6 0.00 0.00 0.00 80 1033.4
20260503053030 51 349 9.6 18.2 0.00 0.00 0.00 79 1033.2
20260503052025 52 352 11.3 21.7 0.00 0.00 0.00 79 1033.3
20260503051020 52 354 12.2 17.4 0.00 0.00 0.00 78 1033.2
20260503050035 53 349 9.6 15.6 0.00 0.00 0.00 77 1033.3
20260503045031 53 341 12.2 18.2 0.00 0.00 0.00 77 1033.2
20260503044026 53 341 13.0 18.2 0.00 0.00 0.00 76 1033.1
20260503043021 54 344 10.4 18.2 0.00 0.00 0.00 75 1033.3
20260503042016 54 347 12.2 18.2 0.00 0.00 0.00 75 1033.2
20260503041031 55 352 11.3 17.4 0.00 0.00 0.00 74 1033.1
20260503040106 55 347 12.2 19.1 0.00 0.00 0.00 74 1033.1
20260503035021 56 345 12.2 17.4 0.00 0.00 0.00 74 1033.1
20260503034016 57 345 12.2 18.2 0.00 0.00 0.00 71 1033.2